Year,Month,Day,Hour,Minute,Value (Times are PST for temperature in C)
2008,06,28,00,00,15.90
2008,06,28,00,01,15.90
2008,06,28,00,02,15.90
2008,06,28,00,03,15.80
2008,06,28,00,04,15.80
2008,06,28,00,05,15.80
2008,06,28,00,06,15.80
2008,06,28,00,07,15.80
2008,06,28,00,08,15.80
2008,06,28,00,09,15.80
2008,06,28,00,10,15.80
2008,06,28,00,11,15.80
2008,06,28,00,12,15.80
2008,06,28,00,13,15.80
2008,06,28,00,14,15.80
2008,06,28,00,15,15.80
2008,06,28,00,16,15.80
2008,06,28,00,17,15.80
2008,06,28,00,18,15.80
2008,06,28,00,19,15.80
2008,06,28,00,20,15.80
2008,06,28,00,21,15.80
2008,06,28,00,22,15.80
2008,06,28,00,23,15.80
2008,06,28,00,24,15.80
2008,06,28,00,25,15.80
2008,06,28,00,26,15.80
2008,06,28,00,27,15.80
2008,06,28,00,28,15.80
2008,06,28,00,29,15.80
2008,06,28,00,30,15.80
2008,06,28,00,31,15.80
2008,06,28,00,32,15.80
2008,06,28,00,33,15.80
2008,06,28,00,34,15.80
2008,06,28,00,35,15.80
2008,06,28,00,36,15.80
2008,06,28,00,37,15.80
2008,06,28,00,38,15.80
2008,06,28,00,39,15.80
2008,06,28,00,40,15.70
2008,06,28,00,41,15.70
2008,06,28,00,42,15.70
2008,06,28,00,43,15.70
2008,06,28,00,44,15.70
2008,06,28,00,45,15.70
2008,06,28,00,46,15.70
2008,06,28,00,47,15.70
2008,06,28,00,48,15.70
2008,06,28,00,49,15.70
2008,06,28,00,50,15.70
2008,06,28,00,51,15.60
2008,06,28,00,52,15.60
2008,06,28,00,53,15.60
2008,06,28,00,54,15.60
2008,06,28,00,55,15.60
2008,06,28,00,56,15.60
2008,06,28,00,57,15.50
2008,06,28,00,58,15.50
2008,06,28,00,59,15.50
2008,06,28,01,00,15.50
2008,06,28,01,01,15.40
2008,06,28,01,02,15.40
2008,06,28,01,03,15.40
2008,06,28,01,04,15.40
2008,06,28,01,05,15.40
2008,06,28,01,06,15.30
2008,06,28,01,07,15.30
2008,06,28,01,08,15.30
2008,06,28,01,09,15.30
2008,06,28,01,10,15.30
2008,06,28,01,11,15.30
2008,06,28,01,12,15.30
2008,06,28,01,13,15.30
2008,06,28,01,14,15.30
2008,06,28,01,15,15.30
2008,06,28,01,16,15.30
2008,06,28,01,17,15.20
2008,06,28,01,18,15.20
2008,06,28,01,19,15.20
2008,06,28,01,20,15.20
2008,06,28,01,21,15.20
2008,06,28,01,22,15.20
2008,06,28,01,23,15.20
2008,06,28,01,24,15.20
2008,06,28,01,25,15.20
2008,06,28,01,26,15.20
2008,06,28,01,27,15.20
2008,06,28,01,28,15.20
2008,06,28,01,29,15.20
2008,06,28,01,30,15.10
2008,06,28,01,31,15.10
2008,06,28,01,32,15.10
2008,06,28,01,33,15.10
2008,06,28,01,34,15.10
2008,06,28,01,35,15.10
2008,06,28,01,36,15.10
2008,06,28,01,37,15.00
2008,06,28,01,38,15.00
2008,06,28,01,39,15.00
2008,06,28,01,40,15.00
2008,06,28,01,41,15.00
2008,06,28,01,42,15.00
2008,06,28,01,43,15.00
2008,06,28,01,44,15.00
2008,06,28,01,45,15.00
2008,06,28,01,46,15.00
2008,06,28,01,47,15.00
2008,06,28,01,48,14.90
2008,06,28,01,49,14.90
2008,06,28,01,50,14.90
2008,06,28,01,51,14.90
2008,06,28,01,52,14.90
2008,06,28,01,53,14.80
2008,06,28,01,54,14.80
2008,06,28,01,55,14.80
2008,06,28,01,56,14.80
2008,06,28,01,57,14.80
2008,06,28,01,58,14.80
2008,06,28,01,59,14.80
2008,06,28,02,00,14.80
2008,06,28,02,01,14.70
2008,06,28,02,02,14.70
2008,06,28,02,03,14.70
2008,06,28,02,04,14.70
2008,06,28,02,05,14.70
2008,06,28,02,06,14.70
2008,06,28,02,07,14.70
2008,06,28,02,08,14.60
2008,06,28,02,09,14.60
2008,06,28,02,10,14.60
2008,06,28,02,11,14.60
2008,06,28,02,12,14.60
2008,06,28,02,13,14.60
2008,06,28,02,14,14.60
2008,06,28,02,15,14.60
2008,06,28,02,16,14.60
2008,06,28,02,17,14.60
2008,06,28,02,18,14.60
2008,06,28,02,19,14.60
2008,06,28,02,20,14.60
2008,06,28,02,21,14.60
2008,06,28,02,22,14.60
2008,06,28,02,23,14.60
2008,06,28,02,24,14.60
2008,06,28,02,25,14.60
2008,06,28,02,26,14.50
2008,06,28,02,27,14.50
2008,06,28,02,28,14.50
2008,06,28,02,29,14.50
2008,06,28,02,30,14.50
2008,06,28,02,31,14.50
2008,06,28,02,32,14.50
2008,06,28,02,33,14.50
2008,06,28,02,34,14.50
2008,06,28,02,35,14.50
2008,06,28,02,36,14.40
2008,06,28,02,37,14.40
2008,06,28,02,38,14.40
2008,06,28,02,39,14.50
2008,06,28,02,40,14.50
2008,06,28,02,41,14.50
2008,06,28,02,42,14.50
2008,06,28,02,43,14.50
2008,06,28,02,44,14.50
2008,06,28,02,45,14.50
2008,06,28,02,46,14.50
2008,06,28,02,47,14.50
2008,06,28,02,48,14.50
2008,06,28,02,49,14.50
2008,06,28,02,50,14.50
2008,06,28,02,51,14.50
2008,06,28,02,52,14.50
2008,06,28,02,53,14.50
2008,06,28,02,54,14.40
2008,06,28,02,55,14.40
2008,06,28,02,56,14.40
2008,06,28,02,57,14.40
2008,06,28,02,58,14.40
2008,06,28,02,59,14.30
2008,06,28,03,00,14.30
2008,06,28,03,01,14.30
2008,06,28,03,02,14.30
2008,06,28,03,03,14.20
2008,06,28,03,04,14.20
2008,06,28,03,05,14.20
2008,06,28,03,06,14.20
2008,06,28,03,07,14.20
2008,06,28,03,08,14.20
2008,06,28,03,09,14.20
2008,06,28,03,10,14.20
2008,06,28,03,11,14.20
2008,06,28,03,12,14.20
2008,06,28,03,13,14.20
2008,06,28,03,14,14.20
2008,06,28,03,15,14.20
2008,06,28,03,16,14.20
2008,06,28,03,17,14.20
2008,06,28,03,18,14.20
2008,06,28,03,19,14.10
2008,06,28,03,20,14.10
2008,06,28,03,21,14.10
2008,06,28,03,22,14.10
2008,06,28,03,23,14.10
2008,06,28,03,24,14.10
2008,06,28,03,25,14.10
2008,06,28,03,26,14.10
2008,06,28,03,27,14.10
2008,06,28,03,28,14.10
2008,06,28,03,29,14.10
2008,06,28,03,30,14.10
2008,06,28,03,31,14.10
2008,06,28,03,32,14.10
2008,06,28,03,33,14.00
2008,06,28,03,34,14.00
2008,06,28,03,35,14.00
2008,06,28,03,36,14.00
2008,06,28,03,37,14.00
2008,06,28,03,38,14.00
2008,06,28,03,39,14.00
2008,06,28,03,40,14.00
2008,06,28,03,41,14.00
2008,06,28,03,42,14.00
2008,06,28,03,43,14.00
2008,06,28,03,44,13.90
2008,06,28,03,45,13.90
2008,06,28,03,46,13.90
2008,06,28,03,47,13.90
2008,06,28,03,48,13.90
2008,06,28,03,49,13.90
2008,06,28,03,50,13.90
2008,06,28,03,51,13.90
2008,06,28,03,52,13.90
2008,06,28,03,53,13.90
2008,06,28,03,54,13.90
2008,06,28,03,55,13.90
2008,06,28,03,56,13.90
2008,06,28,03,57,13.90
2008,06,28,03,58,13.90
2008,06,28,03,59,13.90
2008,06,28,04,00,13.90
2008,06,28,04,01,13.90
2008,06,28,04,02,13.90
2008,06,28,04,03,13.90
2008,06,28,04,04,13.80
2008,06,28,04,05,13.80
2008,06,28,04,06,13.70
2008,06,28,04,07,13.70
2008,06,28,04,08,13.60
2008,06,28,04,09,13.60
2008,06,28,04,10,13.50
2008,06,28,04,11,13.40
2008,06,28,04,12,13.30
2008,06,28,04,13,13.30
2008,06,28,04,14,13.30
2008,06,28,04,15,13.30
2008,06,28,04,16,13.20
2008,06,28,04,17,13.20
2008,06,28,04,18,13.20
2008,06,28,04,19,13.20
2008,06,28,04,20,13.10
2008,06,28,04,21,13.10
2008,06,28,04,22,13.10
2008,06,28,04,23,13.10
2008,06,28,04,24,13.10
2008,06,28,04,25,13.10
2008,06,28,04,26,13.10
2008,06,28,04,27,13.10
2008,06,28,04,28,13.10
2008,06,28,04,29,13.10
2008,06,28,04,30,13.10
2008,06,28,04,31,13.10
2008,06,28,04,32,13.10
2008,06,28,04,33,13.10
2008,06,28,04,34,13.10
2008,06,28,04,35,13.20
2008,06,28,04,36,13.20
2008,06,28,04,37,13.20
2008,06,28,04,38,13.30
2008,06,28,04,39,13.30
2008,06,28,04,40,13.30
2008,06,28,04,41,13.30
2008,06,28,04,42,13.30
2008,06,28,04,43,13.30
2008,06,28,04,44,13.30
2008,06,28,04,45,13.30
2008,06,28,04,46,13.30
2008,06,28,04,47,13.30
2008,06,28,04,48,13.30
2008,06,28,04,49,13.30
2008,06,28,04,50,13.30
2008,06,28,04,51,13.30
2008,06,28,04,52,13.30
2008,06,28,04,53,13.30
2008,06,28,04,54,13.30
2008,06,28,04,55,13.30
2008,06,28,04,56,13.30
2008,06,28,04,57,13.30
2008,06,28,04,58,13.30
2008,06,28,04,59,13.30
2008,06,28,05,00,13.30
2008,06,28,05,01,13.30
2008,06,28,05,02,13.30
2008,06,28,05,03,13.30
2008,06,28,05,04,13.30
2008,06,28,05,05,13.30
2008,06,28,05,06,13.30
2008,06,28,05,07,13.30
2008,06,28,05,08,13.30
2008,06,28,05,09,13.30
2008,06,28,05,10,13.30
2008,06,28,05,11,13.30
2008,06,28,05,12,13.30
2008,06,28,05,13,13.30
2008,06,28,05,14,13.30
2008,06,28,05,15,13.30
2008,06,28,05,16,13.30
2008,06,28,05,17,13.30
2008,06,28,05,18,13.30
2008,06,28,05,19,13.30
2008,06,28,05,20,13.30
2008,06,28,05,21,13.30
2008,06,28,05,22,13.30
2008,06,28,05,23,13.30
2008,06,28,05,24,13.30
2008,06,28,05,25,13.30
2008,06,28,05,26,13.30
2008,06,28,05,27,13.20
2008,06,28,05,28,13.20
2008,06,28,05,29,13.20
2008,06,28,05,30,13.20
2008,06,28,05,31,13.20
2008,06,28,05,32,13.20
2008,06,28,05,33,13.20
2008,06,28,05,34,13.20
2008,06,28,05,35,13.20
2008,06,28,05,36,13.20
2008,06,28,05,37,13.20
2008,06,28,05,38,13.20
2008,06,28,05,39,13.20
2008,06,28,05,40,13.20
2008,06,28,05,41,13.20
2008,06,28,05,42,13.20
2008,06,28,05,43,13.20
2008,06,28,05,44,13.20
2008,06,28,05,45,13.20
2008,06,28,05,46,13.20
2008,06,28,05,47,13.20
2008,06,28,05,48,13.20
2008,06,28,05,49,13.20
2008,06,28,05,50,13.20
2008,06,28,05,51,13.20
2008,06,28,05,52,13.20
2008,06,28,05,53,13.20
2008,06,28,05,54,13.20
2008,06,28,05,55,13.30
2008,06,28,05,56,13.30
2008,06,28,05,57,13.30
2008,06,28,05,58,13.30
2008,06,28,05,59,13.30
2008,06,28,06,00,13.40
2008,06,28,06,01,13.40
2008,06,28,06,02,13.50
2008,06,28,06,03,13.60
2008,06,28,06,04,13.60
2008,06,28,06,05,13.70
2008,06,28,06,06,13.70
2008,06,28,06,07,13.70
2008,06,28,06,08,13.80
2008,06,28,06,09,13.90
2008,06,28,06,10,13.90
2008,06,28,06,11,14.00
2008,06,28,06,12,14.00
2008,06,28,06,13,14.00
2008,06,28,06,14,14.10
2008,06,28,06,15,14.10
2008,06,28,06,16,14.20
2008,06,28,06,17,14.20
2008,06,28,06,18,14.20
2008,06,28,06,19,14.30
2008,06,28,06,20,14.40
2008,06,28,06,21,14.40
2008,06,28,06,22,14.50
2008,06,28,06,23,14.60
2008,06,28,06,24,14.60
2008,06,28,06,25,14.60
2008,06,28,06,26,14.70
2008,06,28,06,27,14.70
2008,06,28,06,28,14.80
2008,06,28,06,29,14.80
2008,06,28,06,30,14.80
2008,06,28,06,31,14.80
2008,06,28,06,32,14.80
2008,06,28,06,33,14.80
2008,06,28,06,34,14.90
2008,06,28,06,35,14.90
2008,06,28,06,36,14.90
2008,06,28,06,37,15.00
2008,06,28,06,38,15.00
2008,06,28,06,39,15.10
2008,06,28,06,40,15.10
2008,06,28,06,41,15.20
2008,06,28,06,42,15.30
2008,06,28,06,43,15.30
2008,06,28,06,44,15.30
2008,06,28,06,45,15.40
2008,06,28,06,46,15.50
2008,06,28,06,47,15.50
2008,06,28,06,48,15.60
2008,06,28,06,49,15.70
2008,06,28,06,50,15.70
2008,06,28,06,51,15.80
2008,06,28,06,52,15.80
2008,06,28,06,53,15.90
2008,06,28,06,54,16.10
2008,06,28,06,55,16.10
2008,06,28,06,56,16.20
2008,06,28,06,57,16.30
2008,06,28,06,58,16.40
2008,06,28,06,59,16.50
2008,06,28,07,00,16.70
2008,06,28,07,01,16.70
2008,06,28,07,02,16.80
2008,06,28,07,03,16.90
2008,06,28,07,04,17.00
2008,06,28,07,05,17.10
2008,06,28,07,06,17.10
2008,06,28,07,07,17.30
2008,06,28,07,08,17.30
2008,06,28,07,09,17.40
2008,06,28,07,10,17.50
2008,06,28,07,11,17.70
2008,06,28,07,12,17.80
2008,06,28,07,13,18.00
2008,06,28,07,14,18.10
2008,06,28,07,15,18.20
2008,06,28,07,16,18.40
2008,06,28,07,17,18.50
2008,06,28,07,18,18.60
2008,06,28,07,19,18.70
2008,06,28,07,20,18.80
2008,06,28,07,21,18.90
2008,06,28,07,22,18.90
2008,06,28,07,23,18.90
2008,06,28,07,24,19.10
2008,06,28,07,25,19.10
2008,06,28,07,26,19.10
2008,06,28,07,27,19.20
2008,06,28,07,28,19.20
2008,06,28,07,29,19.30
2008,06,28,07,30,19.30
2008,06,28,07,31,19.30
2008,06,28,07,32,19.30
2008,06,28,07,33,19.30
2008,06,28,07,34,19.30
2008,06,28,07,35,19.40
2008,06,28,07,36,19.40
2008,06,28,07,37,19.40
2008,06,28,07,38,19.40
2008,06,28,07,39,19.40
2008,06,28,07,40,19.40
2008,06,28,07,41,19.40
2008,06,28,07,42,19.40
2008,06,28,07,43,19.40
2008,06,28,07,44,19.50
2008,06,28,07,45,19.50
2008,06,28,07,46,19.50
2008,06,28,07,47,19.50
2008,06,28,07,48,19.50
2008,06,28,07,49,19.60
2008,06,28,07,50,19.60
2008,06,28,07,51,19.60
2008,06,28,07,52,19.70
2008,06,28,07,53,19.70
2008,06,28,07,54,19.70
2008,06,28,07,55,19.80
2008,06,28,07,56,19.80
2008,06,28,07,57,19.90
2008,06,28,07,58,19.90
2008,06,28,07,59,19.90
2008,06,28,08,00,19.90
2008,06,28,08,01,19.90
2008,06,28,08,02,19.90
2008,06,28,08,03,19.90
2008,06,28,08,04,19.90
2008,06,28,08,05,20.00
2008,06,28,08,06,20.10
2008,06,28,08,07,20.10
2008,06,28,08,08,20.10
2008,06,28,08,09,20.10
2008,06,28,08,10,20.10
2008,06,28,08,11,20.10
2008,06,28,08,12,20.10
2008,06,28,08,13,20.10
2008,06,28,08,14,20.20
2008,06,28,08,15,20.20
2008,06,28,08,16,20.20
2008,06,28,08,17,20.20
2008,06,28,08,18,20.30
2008,06,28,08,19,20.30
2008,06,28,08,20,20.30
2008,06,28,08,21,20.30
2008,06,28,08,22,20.30
2008,06,28,08,23,20.30
2008,06,28,08,24,20.30
2008,06,28,08,25,20.20
2008,06,28,08,26,20.30
2008,06,28,08,27,20.40
2008,06,28,08,28,20.40
2008,06,28,08,29,20.40
2008,06,28,08,30,20.40
2008,06,28,08,31,20.30
2008,06,28,08,32,20.30
2008,06,28,08,33,20.30
2008,06,28,08,34,20.30
2008,06,28,08,35,20.30
2008,06,28,08,36,20.30
2008,06,28,08,37,20.30
2008,06,28,08,38,20.30
2008,06,28,08,39,20.30
2008,06,28,08,40,20.20
2008,06,28,08,41,20.20
2008,06,28,08,42,20.20
2008,06,28,08,43,20.20
2008,06,28,08,44,20.20
2008,06,28,08,45,20.30
2008,06,28,08,46,20.30
2008,06,28,08,47,20.40
2008,06,28,08,48,20.50
2008,06,28,08,49,20.50
2008,06,28,08,50,20.60
2008,06,28,08,51,20.60
2008,06,28,08,52,20.60
2008,06,28,08,53,20.60
2008,06,28,08,54,20.60
2008,06,28,08,55,20.70
2008,06,28,08,56,20.70
2008,06,28,08,57,20.70
2008,06,28,08,58,20.70
2008,06,28,08,59,20.80
2008,06,28,09,00,20.80
2008,06,28,09,01,20.80
2008,06,28,09,02,20.80
2008,06,28,09,03,20.80
2008,06,28,09,04,20.90
2008,06,28,09,05,21.00
2008,06,28,09,06,21.00
2008,06,28,09,07,21.00
2008,06,28,09,08,21.00
2008,06,28,09,09,21.00
2008,06,28,09,10,21.00
2008,06,28,09,11,21.00
2008,06,28,09,12,21.10
2008,06,28,09,13,21.20
2008,06,28,09,14,21.30
2008,06,28,09,15,21.30
2008,06,28,09,16,21.30
2008,06,28,09,17,21.40
2008,06,28,09,18,21.50
2008,06,28,09,19,21.60
2008,06,28,09,20,21.60
2008,06,28,09,21,21.60
2008,06,28,09,22,21.60
2008,06,28,09,23,21.70
2008,06,28,09,24,21.70
2008,06,28,09,25,21.70
2008,06,28,09,26,21.70
2008,06,28,09,27,21.70
2008,06,28,09,28,21.70
2008,06,28,09,29,21.70
2008,06,28,09,30,21.70
2008,06,28,09,31,21.80
2008,06,28,09,32,21.80
2008,06,28,09,33,21.70
2008,06,28,09,34,21.70
2008,06,28,09,35,21.70
2008,06,28,09,36,21.80
2008,06,28,09,37,21.80
2008,06,28,09,38,21.90
2008,06,28,09,39,21.90
2008,06,28,09,40,21.80
2008,06,28,09,41,21.90
2008,06,28,09,42,21.90
2008,06,28,09,43,22.00
2008,06,28,09,44,22.00
2008,06,28,09,45,22.10
2008,06,28,09,46,22.10
2008,06,28,09,47,22.20
2008,06,28,09,48,22.30
2008,06,28,09,49,22.30
2008,06,28,09,50,22.30
2008,06,28,09,51,22.30
2008,06,28,09,52,22.40
2008,06,28,09,53,22.50
2008,06,28,09,54,22.60
2008,06,28,09,55,22.70
2008,06,28,09,56,22.70
2008,06,28,09,57,22.70
2008,06,28,09,58,22.80
2008,06,28,09,59,22.70
2008,06,28,10,00,22.70
2008,06,28,10,01,22.60
2008,06,28,10,02,22.70
2008,06,28,10,03,22.60
2008,06,28,10,04,22.60
2008,06,28,10,05,22.60
2008,06,28,10,06,22.70
2008,06,28,10,07,22.80
2008,06,28,10,08,22.80
2008,06,28,10,09,22.70
2008,06,28,10,10,22.70
2008,06,28,10,11,22.70
2008,06,28,10,12,22.70
2008,06,28,10,13,22.70
2008,06,28,10,14,22.70
2008,06,28,10,15,22.70
2008,06,28,10,16,22.80
2008,06,28,10,17,22.80
2008,06,28,10,18,22.80
2008,06,28,10,19,22.80
2008,06,28,10,20,22.90
2008,06,28,10,21,22.90
2008,06,28,10,22,23.00
2008,06,28,10,23,23.10
2008,06,28,10,24,23.10
2008,06,28,10,25,23.00
2008,06,28,10,26,22.90
2008,06,28,10,27,22.90
2008,06,28,10,28,22.90
2008,06,28,10,29,22.90
2008,06,28,10,30,22.90
2008,06,28,10,31,22.90
2008,06,28,10,32,22.90
2008,06,28,10,33,22.90
2008,06,28,10,34,22.90
2008,06,28,10,35,22.90
2008,06,28,10,36,23.00
2008,06,28,10,37,23.10
2008,06,28,10,38,23.20
2008,06,28,10,39,23.20
2008,06,28,10,40,23.30
2008,06,28,10,41,23.30
2008,06,28,10,42,23.30
2008,06,28,10,43,23.20
2008,06,28,10,44,23.20
2008,06,28,10,45,23.10
2008,06,28,10,46,23.00
2008,06,28,10,47,22.90
2008,06,28,10,48,22.80
2008,06,28,10,49,22.70
2008,06,28,10,50,22.80
2008,06,28,10,51,22.70
2008,06,28,10,52,22.70
2008,06,28,10,53,22.90
2008,06,28,10,54,22.90
2008,06,28,10,55,22.90
2008,06,28,10,56,22.90
2008,06,28,10,57,22.90
2008,06,28,10,58,23.00
2008,06,28,10,59,23.10
2008,06,28,11,00,23.10
2008,06,28,11,01,23.20
2008,06,28,11,02,23.10
2008,06,28,11,03,23.10
2008,06,28,11,04,23.10
2008,06,28,11,05,23.20
2008,06,28,11,06,23.30
2008,06,28,11,07,23.30
2008,06,28,11,08,23.30
2008,06,28,11,09,23.30
2008,06,28,11,10,23.30
2008,06,28,11,11,23.30
2008,06,28,11,12,23.30
2008,06,28,11,13,23.30
2008,06,28,11,14,23.30
2008,06,28,11,15,23.30
2008,06,28,11,16,23.30
2008,06,28,11,17,23.40
2008,06,28,11,18,23.40
2008,06,28,11,19,23.40
2008,06,28,11,20,23.40
2008,06,28,11,21,23.40
2008,06,28,11,22,23.40
2008,06,28,11,23,23.40
2008,06,28,11,24,23.40
2008,06,28,11,25,23.40
2008,06,28,11,26,23.50
2008,06,28,11,27,23.60
2008,06,28,11,28,23.60
2008,06,28,11,29,23.60
2008,06,28,11,30,23.60
2008,06,28,11,31,23.70
2008,06,28,11,32,23.70
2008,06,28,11,33,23.80
2008,06,28,11,34,23.80
2008,06,28,11,35,23.80
2008,06,28,11,36,23.80
2008,06,28,11,37,23.80
2008,06,28,11,38,23.80
2008,06,28,11,39,23.80
2008,06,28,11,40,23.80
2008,06,28,11,41,23.90
2008,06,28,11,42,24.00
2008,06,28,11,43,24.10
2008,06,28,11,44,24.10
2008,06,28,11,45,24.10
2008,06,28,11,46,24.10
2008,06,28,11,47,24.10
2008,06,28,11,48,24.10
2008,06,28,11,49,24.10
2008,06,28,11,50,24.10
2008,06,28,11,51,24.20
2008,06,28,11,52,24.30
2008,06,28,11,53,24.30
2008,06,28,11,54,24.40
2008,06,28,11,55,24.40
2008,06,28,11,56,24.30
2008,06,28,11,57,24.30
2008,06,28,11,58,24.20
2008,06,28,11,59,24.10
2008,06,28,12,00,24.10
2008,06,28,12,01,24.10
2008,06,28,12,02,24.10
2008,06,28,12,03,24.10
2008,06,28,12,04,24.10
2008,06,28,12,05,24.30
2008,06,28,12,06,24.40
2008,06,28,12,07,24.50
2008,06,28,12,08,24.50
2008,06,28,12,09,24.50
2008,06,28,12,10,24.40
2008,06,28,12,11,24.40
2008,06,28,12,12,24.30
2008,06,28,12,13,24.40
2008,06,28,12,14,24.50
2008,06,28,12,15,24.80
2008,06,28,12,16,24.90
2008,06,28,12,17,24.90
2008,06,28,12,18,24.90
2008,06,28,12,19,25.00
2008,06,28,12,20,25.00
2008,06,28,12,21,24.90
2008,06,28,12,22,24.90
2008,06,28,12,23,24.90
2008,06,28,12,24,24.90
2008,06,28,12,25,24.80
2008,06,28,12,26,24.80
2008,06,28,12,27,24.70
2008,06,28,12,28,24.70
2008,06,28,12,29,24.70
2008,06,28,12,30,24.60
2008,06,28,12,31,24.60
2008,06,28,12,32,24.60
2008,06,28,12,33,24.60
2008,06,28,12,34,24.60
2008,06,28,12,35,24.50
2008,06,28,12,36,24.50
2008,06,28,12,37,24.40
2008,06,28,12,38,24.40
2008,06,28,12,39,24.30
2008,06,28,12,40,24.40
2008,06,28,12,41,24.40
2008,06,28,12,42,24.50
2008,06,28,12,43,24.60
2008,06,28,12,44,24.60
2008,06,28,12,45,24.80
2008,06,28,12,46,24.90
2008,06,28,12,47,25.00
2008,06,28,12,48,25.00
2008,06,28,12,49,24.90
2008,06,28,12,50,25.00
2008,06,28,12,51,25.00
2008,06,28,12,52,24.90
2008,06,28,12,53,25.00
2008,06,28,12,54,25.00
2008,06,28,12,55,25.00
2008,06,28,12,56,25.00
2008,06,28,12,57,24.90
2008,06,28,12,58,24.90
2008,06,28,12,59,24.90
2008,06,28,13,00,24.90
2008,06,28,13,01,24.90
2008,06,28,13,02,24.90
2008,06,28,13,03,24.90
2008,06,28,13,04,24.90
2008,06,28,13,05,24.90
2008,06,28,13,06,24.80
2008,06,28,13,07,24.90
2008,06,28,13,08,24.90
2008,06,28,13,09,25.10
2008,06,28,13,10,25.10
2008,06,28,13,11,25.10
2008,06,28,13,12,25.00
2008,06,28,13,13,25.00
2008,06,28,13,14,25.00
2008,06,28,13,15,25.00
2008,06,28,13,16,25.00
2008,06,28,13,17,24.90
2008,06,28,13,18,24.90
2008,06,28,13,19,25.00
2008,06,28,13,20,25.10
2008,06,28,13,21,25.20
2008,06,28,13,22,25.30
2008,06,28,13,23,25.40
2008,06,28,13,24,25.50
2008,06,28,13,25,25.50
2008,06,28,13,26,25.40
2008,06,28,13,27,25.40
2008,06,28,13,28,25.50
2008,06,28,13,29,25.50
2008,06,28,13,30,25.50
2008,06,28,13,31,25.60
2008,06,28,13,32,25.60
2008,06,28,13,33,25.80
2008,06,28,13,34,25.90
2008,06,28,13,35,25.90
2008,06,28,13,36,25.90
2008,06,28,13,37,25.90
2008,06,28,13,38,26.00
2008,06,28,13,39,25.90
2008,06,28,13,40,25.90
2008,06,28,13,41,26.00
2008,06,28,13,42,26.10
2008,06,28,13,43,26.10
2008,06,28,13,44,26.10
2008,06,28,13,45,26.10
2008,06,28,13,46,26.10
2008,06,28,13,47,26.10
2008,06,28,13,48,26.10
2008,06,28,13,49,26.00
2008,06,28,13,50,26.00
2008,06,28,13,51,26.00
2008,06,28,13,52,26.00
2008,06,28,13,53,25.90
2008,06,28,13,54,25.90
2008,06,28,13,55,25.90
2008,06,28,13,56,26.00
2008,06,28,13,57,26.00
2008,06,28,13,58,26.00
2008,06,28,13,59,26.00
2008,06,28,14,00,26.00
2008,06,28,14,01,26.10
2008,06,28,14,02,26.20
2008,06,28,14,03,26.40
2008,06,28,14,04,26.40
2008,06,28,14,05,26.50
2008,06,28,14,06,26.40
2008,06,28,14,07,26.30
2008,06,28,14,08,26.30
2008,06,28,14,09,26.30
2008,06,28,14,10,26.30
2008,06,28,14,11,26.30
2008,06,28,14,12,26.30
2008,06,28,14,13,26.30
2008,06,28,14,14,26.30
2008,06,28,14,15,26.20
2008,06,28,14,16,26.30
2008,06,28,14,17,26.50
2008,06,28,14,18,26.60
2008,06,28,14,19,26.60
2008,06,28,14,20,26.60
2008,06,28,14,21,26.60
2008,06,28,14,22,26.60
2008,06,28,14,23,26.50
2008,06,28,14,24,26.40
2008,06,28,14,25,26.30
2008,06,28,14,26,26.20
2008,06,28,14,27,26.30
2008,06,28,14,28,26.30
2008,06,28,14,29,26.30
2008,06,28,14,30,26.40
2008,06,28,14,31,26.40
2008,06,28,14,32,26.50
2008,06,28,14,33,26.50
2008,06,28,14,34,26.40
2008,06,28,14,35,26.60
2008,06,28,14,36,26.60
2008,06,28,14,37,26.60
2008,06,28,14,38,26.60
2008,06,28,14,39,26.60
2008,06,28,14,40,26.60
2008,06,28,14,41,26.60
2008,06,28,14,42,26.60
2008,06,28,14,43,26.60
2008,06,28,14,44,26.70
2008,06,28,14,45,26.60
2008,06,28,14,46,26.60
2008,06,28,14,47,26.70
2008,06,28,14,48,26.80
2008,06,28,14,49,26.80
2008,06,28,14,50,26.80
2008,06,28,14,51,26.80
2008,06,28,14,52,26.80
2008,06,28,14,53,26.80
2008,06,28,14,54,26.70
2008,06,28,14,55,26.80
2008,06,28,14,56,26.80
2008,06,28,14,57,26.80
2008,06,28,14,58,26.80
2008,06,28,14,59,26.80
2008,06,28,15,00,26.80
2008,06,28,15,01,26.80
2008,06,28,15,02,26.90
2008,06,28,15,03,27.00
2008,06,28,15,04,27.00
2008,06,28,15,05,26.90
2008,06,28,15,06,27.00
2008,06,28,15,07,27.10
2008,06,28,15,08,27.10
2008,06,28,15,09,27.20
2008,06,28,15,10,27.10
2008,06,28,15,11,27.10
2008,06,28,15,12,27.20
2008,06,28,15,13,27.30
2008,06,28,15,14,27.30
2008,06,28,15,15,27.30
2008,06,28,15,16,27.20
2008,06,28,15,17,27.20
2008,06,28,15,18,27.20
2008,06,28,15,19,27.10
2008,06,28,15,20,27.20
2008,06,28,15,21,27.20
2008,06,28,15,22,27.20
2008,06,28,15,23,27.20
2008,06,28,15,24,27.30
2008,06,28,15,25,27.30
2008,06,28,15,26,27.30
2008,06,28,15,27,27.30
2008,06,28,15,28,27.40
2008,06,28,15,29,27.30
2008,06,28,15,30,27.40
2008,06,28,15,31,27.40
2008,06,28,15,32,27.40
2008,06,28,15,33,27.30
2008,06,28,15,34,27.30
2008,06,28,15,35,27.40
2008,06,28,15,36,27.40
2008,06,28,15,37,27.40
2008,06,28,15,38,27.40
2008,06,28,15,39,27.40
2008,06,28,15,40,27.40
2008,06,28,15,41,27.40
2008,06,28,15,42,27.30
2008,06,28,15,43,27.30
2008,06,28,15,44,27.40
2008,06,28,15,45,27.40
2008,06,28,15,46,27.40
2008,06,28,15,47,27.40
2008,06,28,15,48,27.40
2008,06,28,15,49,27.40
2008,06,28,15,50,27.40
2008,06,28,15,51,27.40
2008,06,28,15,52,27.40
2008,06,28,15,53,27.30
2008,06,28,15,54,27.40
2008,06,28,15,55,27.40
2008,06,28,15,56,27.50
2008,06,28,15,57,27.50
2008,06,28,15,58,27.40
2008,06,28,15,59,27.40
2008,06,28,16,00,27.40
2008,06,28,16,01,27.30
2008,06,28,16,02,27.40
2008,06,28,16,03,27.40
2008,06,28,16,04,27.40
2008,06,28,16,05,27.50
2008,06,28,16,06,27.60
2008,06,28,16,07,27.70
2008,06,28,16,08,27.80
2008,06,28,16,09,27.90
2008,06,28,16,10,27.80
2008,06,28,16,11,27.80
2008,06,28,16,12,27.80
2008,06,28,16,13,27.70
2008,06,28,16,14,27.70
2008,06,28,16,15,27.80
2008,06,28,16,16,27.80
2008,06,28,16,17,27.80
2008,06,28,16,18,27.90
2008,06,28,16,19,27.80
2008,06,28,16,20,27.80
2008,06,28,16,21,27.80
2008,06,28,16,22,27.80
2008,06,28,16,23,27.80
2008,06,28,16,24,27.80
2008,06,28,16,25,27.90
2008,06,28,16,26,27.90
2008,06,28,16,27,27.90
2008,06,28,16,28,28.00
2008,06,28,16,29,28.00
2008,06,28,16,30,28.00
2008,06,28,16,31,28.00
2008,06,28,16,32,28.10
2008,06,28,16,33,28.10
2008,06,28,16,34,28.10
2008,06,28,16,35,28.10
2008,06,28,16,36,28.10
2008,06,28,16,37,28.10
2008,06,28,16,38,28.20
2008,06,28,16,39,28.20
2008,06,28,16,40,28.20
2008,06,28,16,41,28.20
2008,06,28,16,42,28.30
2008,06,28,16,43,28.30
2008,06,28,16,44,28.30
2008,06,28,16,45,28.30
2008,06,28,16,46,28.30
2008,06,28,16,47,28.40
2008,06,28,16,48,28.40
2008,06,28,16,49,28.50
2008,06,28,16,50,28.60
2008,06,28,16,51,28.80
2008,06,28,16,52,28.90
2008,06,28,16,53,28.90
2008,06,28,16,54,28.80
2008,06,28,16,55,28.70
2008,06,28,16,56,28.80
2008,06,28,16,57,28.80
2008,06,28,16,58,28.90
2008,06,28,16,59,29.00
2008,06,28,17,00,29.00
2008,06,28,17,01,28.90
2008,06,28,17,02,28.90
2008,06,28,17,03,28.90
2008,06,28,17,04,28.80
2008,06,28,17,05,28.70
2008,06,28,17,06,28.60
2008,06,28,17,07,28.40
2008,06,28,17,08,28.40
2008,06,28,17,09,28.30
2008,06,28,17,10,28.30
2008,06,28,17,11,28.40
2008,06,28,17,12,28.50
2008,06,28,17,13,28.60
2008,06,28,17,14,28.60
2008,06,28,17,15,28.60
2008,06,28,17,16,28.60
2008,06,28,17,17,28.70
2008,06,28,17,18,28.70
2008,06,28,17,19,28.70